This is the latest recevied weather packets stored in our database for station/object KD4EED. If no packets are shown the sender has not sent any weather packets the latest 10 day(s).
| Time | Temp. | Humidity | Pressure | Rain* | Wind** | Luminosity | Snow |
|---|---|---|---|---|---|---|---|
| 1777691585 | 16.67° C | 82% | 1010 hPa | - | - | 0 W/m² | - |
| 1777691283 | 16.67° C | 81% | 1010 hPa | - | - | 0 W/m² | - |
| 1777690980 | 16.67° C | 81% | 1009.9 hPa | - | - | 0 W/m² | - |
| 1777690678 | 16.67° C | 80% | 1009.8 hPa | - | - | 0 W/m² | - |
| 1777690376 | 16.67° C | 80% | 1009.7 hPa | - | - | 0 W/m² | - |
| 1777690073 | 16.67° C | 79% | 1009.7 hPa | - | - | 0 W/m² | - |
| 1777689770 | 16.67° C | 79% | 1009.9 hPa | - | - | 1 W/m² | - |
| 1777689468 | 17.22° C | 78% | 1009.9 hPa | - | - | 2 W/m² | - |
| 1777689166 | 17.22° C | 78% | 1009.7 hPa | - | - | 4 W/m² | - |
| 1777688864 | 17.22° C | 77% | 1009.9 hPa | - | - | 6 W/m² | - |
| 1777688559 | 17.78° C | 76% | 1009.7 hPa | - | - | 9 W/m² | - |
| 1777688257 | 17.78° C | 76% | 1009.8 hPa | - | - | 12 W/m² | - |
| 1777687954 | 17.78° C | 76% | 1009.6 hPa | - | - | 15 W/m² | - |
| 1777687651 | 17.78° C | 75% | 1009.5 hPa | - | - | 18 W/m² | - |
| 1777687348 | 17.78° C | 74% | 1009.4 hPa | - | - | 20 W/m² | - |
| 1777687046 | 17.78° C | 74% | 1009.5 hPa | - | - | 23 W/m² | - |
| 1777686742 | 18.33° C | 72% | 1009.5 hPa | - | - | 25 W/m² | - |
| 1777686440 | 18.89° C | 72% | 1009.5 hPa | - | - | 27 W/m² | - |
| 1777686137 | 18.89° C | 71% | 1009.5 hPa | - | - | 32 W/m² | - |
| 1777685833 | 19.44° C | 69% | 1009.4 hPa | - | - | 41 W/m² | - |
| 1777685528 | 19.44° C | 68% | 1009.4 hPa | - | - | 49 W/m² | - |
| 1777685225 | 20° C | 68% | 1009.3 hPa | - | - | 52 W/m² | - |
| 1777684923 | 20° C | 66% | 1009.5 hPa | - | - | 68 W/m² | - |
| 1777684620 | 20.56° C | 65% | 1009.3 hPa | - | - | 70 W/m² | - |
| 1777684316 | 20.56° C | 64% | 1009.3 hPa | - | - | 80 W/m² | - |
* Rain since midnight (hover to see other rain measurements)
** Current wind speed in m/s (hover to see current wind gust speed)